NOZ1VE EGKK-ENGM

Flight info

Callsign NOZ1VE
Flight time 1h 55m
Altitude 37000
Route FRANE M604 GIVPO DCT LARGA DCT TINAC DCT KARLI DCT RIVEX DCT OSKOM DCT RIPAM
Aircraft B738/M-SDE2E3GHIJ1LRWXY/LB1

Departure

Time 2026-05-04 12:50
Airport London Gatwick Airport (EGKK)

Arrival

Time 2026-05-04 14:45
Airport Oslo-Gardermoen International Airport (ENGM)
Time Latitude Longitude Altitude Speed Heading
2026-05-04 12:26 51.15604 -0.16783 204 ft 0 kts 167°
2026-05-04 12:39 51.15606 -0.16784 214 ft 3 kts 167°
2026-05-04 12:39 51.15631 -0.16793 213 ft 3 kts 167°
2026-05-04 12:39 51.15653 -0.16799 210 ft 4 kts 177°
2026-05-04 12:39 51.15675 -0.16793 207 ft 4 kts 229°
2026-05-04 12:40 51.15683 -0.16760 210 ft 4 kts 257°
2026-05-04 12:40 51.15685 -0.16746 211 ft 1 kts 257°
2026-05-04 12:42 51.15684 -0.16751 210 ft 2 kts 257°
2026-05-04 12:42 51.15680 -0.16784 216 ft 5 kts 257°
2026-05-04 12:42 51.15664 -0.16897 210 ft 15 kts 257°
2026-05-04 12:43 51.15637 -0.17088 204 ft 19 kts 257°
2026-05-04 12:43 51.15605 -0.17306 205 ft 22 kts 256°
2026-05-04 12:43 51.15562 -0.17453 206 ft 22 kts 229°
2026-05-04 12:43 51.15516 -0.17680 213 ft 21 kts 257°
2026-05-04 12:44 51.15485 -0.17909 209 ft 21 kts 257°
2026-05-04 12:44 51.15454 -0.18131 207 ft 20 kts 257°
2026-05-04 12:44 51.15381 -0.18283 207 ft 19 kts 174°
2026-05-04 12:44 51.15257 -0.18236 204 ft 18 kts 167°
2026-05-04 12:45 51.15180 -0.18281 210 ft 10 kts 253°
2026-05-04 12:45 51.15177 -0.18397 207 ft 13 kts 260°
2026-05-04 12:45 51.15154 -0.18564 207 ft 18 kts 258°
2026-05-04 12:45 51.15126 -0.18769 209 ft 20 kts 258°
2026-05-04 12:46 51.15092 -0.19014 204 ft 26 kts 257°
2026-05-04 12:46 51.15055 -0.19289 209 ft 25 kts 257°
2026-05-04 12:46 51.15019 -0.19545 208 ft 23 kts 257°
2026-05-04 12:46 51.14986 -0.19791 212 ft 22 kts 257°
2026-05-04 12:47 51.14953 -0.20029 209 ft 22 kts 257°
2026-05-04 12:47 51.14921 -0.20260 204 ft 21 kts 257°
2026-05-04 12:47 51.14890 -0.20484 206 ft 20 kts 257°
2026-05-04 12:47 51.14860 -0.20703 204 ft 20 kts 258°
2026-05-04 12:48 51.14831 -0.20913 207 ft 19 kts 256°
2026-05-04 12:48 51.14801 -0.21121 204 ft 20 kts 258°
2026-05-04 12:48 51.14765 -0.21329 208 ft 19 kts 258°
2026-05-04 12:48 51.14679 -0.21394 207 ft 16 kts 145°
2026-05-04 12:49 51.14586 -0.21315 213 ft 15 kts 161°
2026-05-04 12:49 51.14519 -0.21204 210 ft 14 kts 99°
2026-05-04 12:49 51.14521 -0.21148 205 ft 0 kts 78°
2026-05-04 12:49 51.14536 -0.21043 206 ft 37 kts 77°
2026-05-04 12:50 51.14643 -0.20280 213 ft 103 kts 77°
2026-05-04 12:50 51.14834 -0.18890 213 ft 155 kts 78°
2026-05-04 12:50 51.15070 -0.17162 828 ft 152 kts 77°
2026-05-04 12:50 51.15309 -0.15460 1413 ft 168 kts 77°
2026-05-04 12:51 51.15573 -0.13664 2127 ft 170 kts 76°
2026-05-04 12:51 51.15853 -0.11659 2452 ft 200 kts 77°
2026-05-04 12:51 51.16159 -0.09392 2725 ft 219 kts 77°
2026-05-04 12:51 51.16499 -0.06923 3016 ft 237 kts 77°
2026-05-04 12:52 51.16851 -0.04230 3362 ft 256 kts 81°
2026-05-04 12:52 51.16944 -0.01352 3981 ft 263 kts 91°
2026-05-04 12:52 51.16870 0.01573 4700 ft 267 kts 92°
2026-05-04 12:52 51.16783 0.04549 5391 ft 270 kts 92°
2026-05-04 12:53 51.17074 0.07506 6038 ft 276 kts 64°
2026-05-04 12:53 51.18333 0.09787 6765 ft 278 kts 34°
2026-05-04 12:53 51.19953 0.11521 7452 ft 283 kts 33°
2026-05-04 12:53 51.21607 0.13253 8189 ft 285 kts 33°
2026-05-04 12:54 51.23280 0.15007 8948 ft 290 kts 33°
2026-05-04 12:54 51.24972 0.16793 9716 ft 294 kts 33°
2026-05-04 12:54 51.26685 0.18613 10389 ft 301 kts 33°
2026-05-04 12:54 51.28492 0.20542 10583 ft 325 kts 33°
2026-05-04 12:55 51.30411 0.22603 11013 ft 338 kts 33°
2026-05-04 12:55 51.32371 0.24716 11732 ft 342 kts 33°
2026-05-04 12:55 51.34351 0.26856 12518 ft 345 kts 34°
2026-05-04 12:55 51.36346 0.29016 12938 ft 347 kts 34°
2026-05-04 12:56 51.38351 0.31191 13028 ft 351 kts 34°
2026-05-04 12:56 51.40380 0.33395 13032 ft 352 kts 34°
2026-05-04 12:56 51.42413 0.35607 13265 ft 357 kts 34°
2026-05-04 12:56 51.44465 0.37843 14134 ft 356 kts 34°
2026-05-04 12:57 51.46514 0.40077 14928 ft 357 kts 34°
2026-05-04 12:57 51.48581 0.42334 15649 ft 361 kts 34°
2026-05-04 12:57 51.50669 0.44616 16359 ft 365 kts 34°
2026-05-04 12:57 51.52779 0.46925 17070 ft 369 kts 34°
2026-05-04 12:58 51.54914 0.49264 17771 ft 374 kts 34°
2026-05-04 12:58 51.57072 0.51631 18466 ft 378 kts 34°
2026-05-04 12:58 51.59255 0.54028 19065 ft 382 kts 34°
2026-05-04 12:58 51.61403 0.56390 19652 ft 385 kts 34°
2026-05-04 12:59 51.63627 0.58838 20267 ft 389 kts 34°
2026-05-04 12:59 51.65871 0.61310 20872 ft 393 kts 34°
2026-05-04 12:59 51.68136 0.63809 21447 ft 397 kts 34°
2026-05-04 12:59 51.70423 0.66336 22023 ft 401 kts 34°
2026-05-04 13:00 51.72732 0.68891 22595 ft 404 kts 34°
2026-05-04 13:00 51.75062 0.71472 23150 ft 408 kts 34°
2026-05-04 13:00 51.77410 0.74074 23676 ft 412 kts 34°
2026-05-04 13:00 51.79786 0.76712 24120 ft 416 kts 34°
2026-05-04 13:01 51.82141 0.79361 24551 ft 420 kts 36°
2026-05-04 13:01 51.84414 0.82448 24991 ft 424 kts 42°
2026-05-04 13:01 51.86586 0.85602 25417 ft 427 kts 41°
2026-05-04 13:01 51.88829 0.88883 25842 ft 431 kts 42°
2026-05-04 13:02 51.91025 0.92113 26265 ft 434 kts 42°
2026-05-04 13:02 51.93259 0.95397 26792 ft 433 kts 42°
2026-05-04 13:02 51.95514 0.98708 27431 ft 431 kts 42°
2026-05-04 13:02 51.97707 1.01927 28010 ft 430 kts 42°
2026-05-04 13:03 51.99927 1.05185 28538 ft 431 kts 42°
2026-05-04 13:03 52.02148 1.08449 29052 ft 431 kts 42°
2026-05-04 13:03 52.04364 1.11710 29596 ft 430 kts 42°
2026-05-04 13:03 52.06653 1.14832 30120 ft 430 kts 37°
2026-05-04 13:04 52.09056 1.17714 30595 ft 428 kts 35°
2026-05-04 13:04 52.11466 1.20534 31089 ft 426 kts 35°
2026-05-04 13:04 52.13826 1.23444 31549 ft 425 kts 38°
2026-05-04 13:04 52.16109 1.26501 31994 ft 424 kts 40°
2026-05-04 13:05 52.18359 1.29609 32444 ft 423 kts 40°
2026-05-04 13:05 52.20595 1.32709 32884 ft 422 kts 40°
2026-05-04 13:05 52.22836 1.35795 33297 ft 421 kts 40°
2026-05-04 13:05 52.25077 1.38863 33729 ft 420 kts 40°
2026-05-04 13:06 52.27316 1.41918 34104 ft 419 kts 40°
2026-05-04 13:06 52.29554 1.44968 34423 ft 419 kts 40°
2026-05-04 13:06 52.31787 1.48016 34747 ft 418 kts 40°
2026-05-04 13:06 52.33999 1.51097 35006 ft 419 kts 43°
2026-05-04 13:07 52.36103 1.54459 35042 ft 426 kts 46°
2026-05-04 13:07 52.40260 1.61580 35165 ft 439 kts 47°
2026-05-04 13:08 52.44529 1.68918 35279 ft 451 kts 46°
2026-05-04 13:08 52.48931 1.76404 35396 ft 462 kts 46°
2026-05-04 13:09 52.53430 1.84047 35646 ft 467 kts 46°
2026-05-04 13:09 52.55654 1.87837 35928 ft 466 kts 46°
2026-05-04 13:09 52.57897 1.91665 36255 ft 464 kts 46°
2026-05-04 13:09 52.60134 1.95481 36531 ft 463 kts 46°
2026-05-04 13:10 52.62370 1.99298 36750 ft 463 kts 46°
2026-05-04 13:10 52.64608 2.03122 36955 ft 464 kts 46°
2026-05-04 13:10 52.66844 2.06949 37212 ft 463 kts 46°
2026-05-04 13:10 52.69073 2.10770 37490 ft 462 kts 46°
2026-05-04 13:11 52.71294 2.14586 37742 ft 461 kts 46°
2026-05-04 13:11 52.73513 2.18403 37960 ft 461 kts 46°
2026-05-04 13:11 52.75729 2.22222 38143 ft 461 kts 46°
2026-05-04 13:11 52.77946 2.26051 38333 ft 461 kts 46°
2026-05-04 13:12 52.80162 2.29881 38552 ft 461 kts 46°
2026-05-04 13:12 52.82371 2.33707 38775 ft 459 kts 46°
2026-05-04 13:12 52.84577 2.37533 38906 ft 460 kts 46°
2026-05-04 13:13 52.88992 2.45208 39021 ft 460 kts 46°
2026-05-04 13:13 52.93397 2.52890 39035 ft 460 kts 46°
2026-05-04 13:14 52.97883 2.60455 39024 ft 461 kts 39°
2026-05-04 13:14 53.03282 2.66130 39042 ft 460 kts 25°
2026-05-04 13:15 53.09060 2.70754 39027 ft 461 kts 25°
2026-05-04 13:15 53.14838 2.75430 39028 ft 462 kts 25°
2026-05-04 13:16 53.20597 2.80210 39029 ft 462 kts 26°
2026-05-04 13:16 53.26345 2.85013 39033 ft 462 kts 26°
2026-05-04 13:17 53.32121 2.89746 39029 ft 462 kts 24°
2026-05-04 13:17 53.37946 2.94279 39032 ft 461 kts 24°
2026-05-04 13:18 53.43728 2.98765 39032 ft 461 kts 24°
2026-05-04 13:18 53.49566 3.03339 39032 ft 460 kts 24°
2026-05-04 13:19 53.55318 3.07879 39031 ft 459 kts 24°
2026-05-04 13:19 53.61090 3.12454 39034 ft 458 kts 24°
2026-05-04 13:20 53.66859 3.17039 39043 ft 458 kts 24°
2026-05-04 13:20 53.72610 3.21624 39046 ft 457 kts 24°
2026-05-04 13:21 53.78361 3.26222 39048 ft 457 kts 24°
2026-05-04 13:21 53.84111 3.30833 39047 ft 457 kts 24°
2026-05-04 13:22 53.89849 3.35447 39048 ft 457 kts 24°
2026-05-04 13:22 53.95591 3.40081 39047 ft 457 kts 24°
2026-05-04 13:23 54.01335 3.44729 39047 ft 457 kts 24°
2026-05-04 13:23 54.07080 3.49393 39050 ft 458 kts 24°
2026-05-04 13:24 54.12829 3.54074 39050 ft 458 kts 24°
2026-05-04 13:24 54.18577 3.58770 39052 ft 458 kts 24°
2026-05-04 13:25 54.27209 3.65849 39048 ft 459 kts 24°
2026-05-04 13:25 54.32967 3.70589 39050 ft 459 kts 24°
2026-05-04 13:26 54.38730 3.75348 39049 ft 459 kts 24°
2026-05-04 13:26 54.44481 3.80112 39050 ft 459 kts 24°
2026-05-04 13:27 54.50235 3.84894 39054 ft 459 kts 24°
2026-05-04 13:27 54.55989 3.89691 39053 ft 459 kts 24°
2026-05-04 13:28 54.61720 3.94484 39049 ft 459 kts 24°
2026-05-04 13:28 54.67467 3.99305 39053 ft 458 kts 24°
2026-05-04 13:29 54.73159 4.04096 39048 ft 458 kts 24°
2026-05-04 13:29 54.78881 4.08927 39050 ft 457 kts 24°
2026-05-04 13:30 54.84590 4.13760 39050 ft 457 kts 24°
2026-05-04 13:30 54.90457 4.17878 39057 ft 454 kts 17°
2026-05-04 13:31 54.95438 4.20766 39043 ft 454 kts 16°
2026-05-04 13:31 55.01430 4.24216 39046 ft 453 kts 16°
2026-05-04 13:32 55.07410 4.27726 39047 ft 453 kts 16°
2026-05-04 13:32 55.13374 4.31273 39043 ft 453 kts 17°
2026-05-04 13:33 55.19342 4.34842 39042 ft 453 kts 17°
2026-05-04 13:33 55.25309 4.38422 39045 ft 453 kts 17°
2026-05-04 13:34 55.31275 4.42011 39040 ft 453 kts 17°
2026-05-04 13:34 55.37242 4.45612 39038 ft 453 kts 17°
2026-05-04 13:35 55.46196 4.51037 39042 ft 454 kts 17°
2026-05-04 13:36 55.52169 4.54670 39037 ft 454 kts 17°
2026-05-04 13:36 55.58144 4.58316 39039 ft 454 kts 17°
2026-05-04 13:37 55.64114 4.61971 39038 ft 455 kts 17°
2026-05-04 13:37 55.70092 4.65642 39044 ft 455 kts 17°
2026-05-04 13:38 55.76069 4.69325 39043 ft 455 kts 17°
2026-05-04 13:38 55.82044 4.73019 39031 ft 455 kts 17°
2026-05-04 13:39 55.87977 4.76699 39032 ft 454 kts 17°
2026-05-04 13:39 55.93947 4.80414 39037 ft 454 kts 17°
2026-05-04 13:40 55.99912 4.84137 39032 ft 454 kts 16°
2026-05-04 13:40 56.05911 4.87895 39030 ft 454 kts 16°
2026-05-04 13:41 56.11857 4.91632 39026 ft 453 kts 16°
2026-05-04 13:41 56.17765 4.95357 39024 ft 453 kts 16°
2026-05-04 13:42 56.26674 5.01008 39022 ft 453 kts 17°
2026-05-04 13:42 56.32586 5.04923 39021 ft 453 kts 17°
2026-05-04 13:43 56.38488 5.08886 39015 ft 452 kts 17°
2026-05-04 13:43 56.44390 5.12848 39015 ft 452 kts 17°
2026-05-04 13:44 56.50292 5.16811 39013 ft 452 kts 17°
2026-05-04 13:44 56.56190 5.20781 39009 ft 453 kts 17°
2026-05-04 13:45 56.62095 5.24769 39008 ft 453 kts 17°
2026-05-04 13:45 56.68003 5.28773 39003 ft 453 kts 17°
2026-05-04 13:46 56.73915 5.32794 39004 ft 454 kts 17°
2026-05-04 13:46 56.79833 5.36832 38999 ft 454 kts 17°
2026-05-04 13:47 56.85756 5.40888 39002 ft 455 kts 17°
2026-05-04 13:47 56.91686 5.44962 38997 ft 455 kts 17°
2026-05-04 13:48 56.97622 5.49054 38997 ft 456 kts 16°
2026-05-04 13:48 57.03558 5.53159 38998 ft 456 kts 16°
2026-05-04 13:49 57.09506 5.57285 38990 ft 457 kts 16°
2026-05-04 13:49 57.15459 5.61429 38989 ft 458 kts 16°
2026-05-04 13:50 57.21416 5.65591 38988 ft 458 kts 16°
2026-05-04 13:50 57.27384 5.69776 38984 ft 459 kts 16°
2026-05-04 13:51 57.33348 5.73972 38979 ft 459 kts 16°
2026-05-04 13:51 57.39317 5.78186 38974 ft 459 kts 16°
2026-05-04 13:52 57.48240 5.84514 38970 ft 460 kts 16°
2026-05-04 13:53 57.54220 5.88773 38964 ft 460 kts 16°
2026-05-04 13:53 57.60203 5.93049 38965 ft 461 kts 16°
2026-05-04 13:54 57.69183 5.99496 38963 ft 461 kts 16°
2026-05-04 13:55 57.78164 6.05978 38954 ft 462 kts 16°
2026-05-04 13:55 57.87161 6.12506 38953 ft 462 kts 16°
2026-05-04 13:56 57.93163 6.16881 38949 ft 463 kts 16°
2026-05-04 13:57 58.02174 6.23479 38941 ft 463 kts 16°
2026-05-04 13:58 58.14196 6.32337 38937 ft 464 kts 16°
2026-05-04 13:58 58.23221 6.39030 38926 ft 464 kts 16°
2026-05-04 13:59 58.29239 6.43513 38930 ft 465 kts 16°
2026-05-04 14:00 58.38228 6.50239 38919 ft 465 kts 16°
2026-05-04 14:00 58.44071 6.55676 38918 ft 472 kts 28°
2026-05-04 14:00 58.46803 6.59147 38917 ft 474 kts 30°
2026-05-04 14:01 58.52267 6.66353 38910 ft 474 kts 30°
2026-05-04 14:02 58.60393 6.76995 38885 ft 474 kts 29°
2026-05-04 14:02 58.65856 6.84085 38884 ft 474 kts 29°
2026-05-04 14:03 58.71321 6.91190 38883 ft 474 kts 29°
2026-05-04 14:03 58.76781 6.98321 38877 ft 474 kts 29°
2026-05-04 14:04 58.84956 7.09057 38882 ft 474 kts 29°
2026-05-04 14:04 58.90402 7.16243 38874 ft 475 kts 29°
2026-05-04 14:05 58.98585 7.27095 38857 ft 475 kts 29°
2026-05-04 14:06 59.04039 7.34362 38845 ft 476 kts 29°
2026-05-04 14:06 59.09487 7.41648 38837 ft 475 kts 29°
2026-05-04 14:07 59.14485 7.50113 38822 ft 487 kts 52°
2026-05-04 14:07 59.16121 7.55925 38836 ft 492 kts 68°
2026-05-04 14:07 59.16984 7.62395 38636 ft 499 kts 79°
2026-05-04 14:07 59.17536 7.69099 38084 ft 502 kts 81°
2026-05-04 14:08 59.18026 7.75815 37591 ft 498 kts 81°
2026-05-04 14:08 59.18505 7.82503 36976 ft 498 kts 81°
2026-05-04 14:08 59.18996 7.89162 36497 ft 495 kts 81°
2026-05-04 14:08 59.19504 7.95781 36023 ft 493 kts 80°
2026-05-04 14:09 59.20548 8.08903 35187 ft 486 kts 79°
2026-05-04 14:09 59.21070 8.15399 34782 ft 483 kts 79°
2026-05-04 14:10 59.22102 8.28318 33924 ft 480 kts 79°
2026-05-04 14:10 59.22608 8.34746 33432 ft 478 kts 79°
2026-05-04 14:10 59.23108 8.41145 32984 ft 475 kts 79°
2026-05-04 14:10 59.23600 8.47488 32567 ft 472 kts 79°
2026-05-04 14:11 59.24087 8.53820 32153 ft 469 kts 79°
2026-05-04 14:11 59.25041 8.66351 31323 ft 464 kts 78°
2026-05-04 14:11 59.25511 8.72576 30924 ft 462 kts 78°
2026-05-04 14:12 59.25975 8.78771 30529 ft 460 kts 78°
2026-05-04 14:12 59.26435 8.84943 30115 ft 458 kts 78°
2026-05-04 14:12 59.27336 8.97148 29247 ft 454 kts 78°
2026-05-04 14:13 59.27781 9.03247 28811 ft 452 kts 78°
2026-05-04 14:13 59.28221 9.09315 28380 ft 449 kts 78°
2026-05-04 14:13 59.28655 9.15345 27948 ft 447 kts 78°
2026-05-04 14:13 59.29085 9.21353 27530 ft 445 kts 78°
2026-05-04 14:14 59.29510 9.27327 27122 ft 442 kts 78°
2026-05-04 14:14 59.30346 9.39193 26279 ft 439 kts 79°
2026-05-04 14:14 59.30758 9.45096 25865 ft 437 kts 79°
2026-05-04 14:15 59.31570 9.56832 25073 ft 433 kts 79°
2026-05-04 14:15 59.32789 9.68219 24269 ft 419 kts 57°
2026-05-04 14:16 59.36447 9.76206 23643 ft 379 kts 22°
2026-05-04 14:16 59.38735 9.78456 23277 ft 359 kts
2026-05-04 14:17 59.43445 9.81136 22478 ft 349 kts
2026-05-04 14:17 59.45778 9.82360 22113 ft 346 kts
2026-05-04 14:17 59.50396 9.84841 21396 ft 342 kts
2026-05-04 14:18 59.52685 9.86100 21054 ft 341 kts
2026-05-04 14:18 59.56472 9.88204 20470 ft 340 kts
2026-05-04 14:19 59.61003 9.90747 19764 ft 336 kts
2026-05-04 14:19 59.63248 9.92008 19416 ft 335 kts
2026-05-04 14:19 59.65481 9.93263 19082 ft 333 kts
2026-05-04 14:19 59.67716 9.94512 18628 ft 337 kts
2026-05-04 14:20 59.69983 9.95770 18214 ft 340 kts
2026-05-04 14:20 59.72259 9.97040 17829 ft 340 kts
2026-05-04 14:20 59.74526 9.98312 17448 ft 337 kts
2026-05-04 14:21 59.79010 10.00836 16764 ft 333 kts
2026-05-04 14:21 59.81234 10.02087 16405 ft 331 kts
2026-05-04 14:21 59.83443 10.03331 16075 ft 328 kts
2026-05-04 14:21 59.85627 10.04562 15745 ft 326 kts
2026-05-04 14:22 59.87798 10.05787 15416 ft 323 kts
2026-05-04 14:22 59.89952 10.07004 15099 ft 321 kts
2026-05-04 14:22 59.92092 10.08216 14780 ft 319 kts
2026-05-04 14:22 59.94220 10.09421 14457 ft 317 kts
2026-05-04 14:23 59.98409 10.11826 13869 ft 311 kts
2026-05-04 14:23 60.00477 10.13016 13557 ft 308 kts
2026-05-04 14:23 60.02529 10.14197 13222 ft 306 kts
2026-05-04 14:24 60.04570 10.15371 12875 ft 304 kts
2026-05-04 14:24 60.06592 10.16537 12550 ft 302 kts
2026-05-04 14:24 60.08599 10.17694 12288 ft 299 kts
2026-05-04 14:24 60.10593 10.18847 12005 ft 297 kts
2026-05-04 14:25 60.12580 10.19997 11744 ft 297 kts
2026-05-04 14:25 60.16548 10.22294 11052 ft 299 kts
2026-05-04 14:25 60.18550 10.23453 10700 ft 299 kts
2026-05-04 14:26 60.20541 10.24611 10359 ft 298 kts
2026-05-04 14:26 60.22531 10.25769 10035 ft 297 kts
2026-05-04 14:26 60.24497 10.26917 9838 ft 290 kts 10°
2026-05-04 14:26 60.26416 10.28038 9674 ft 284 kts
2026-05-04 14:27 60.28313 10.29143 9339 ft 284 kts
2026-05-04 14:27 60.30203 10.30246 9049 ft 282 kts 10°
2026-05-04 14:27 60.32085 10.31347 8767 ft 280 kts 10°
2026-05-04 14:27 60.33917 10.32599 8708 ft 278 kts 17°
2026-05-04 14:28 60.35684 10.34192 8705 ft 279 kts 19°
2026-05-04 14:28 60.37491 10.35896 8723 ft 294 kts 20°
2026-05-04 14:28 60.39357 10.37648 8704 ft 296 kts 19°
2026-05-04 14:28 60.41219 10.39369 8691 ft 292 kts 19°
2026-05-04 14:29 60.44894 10.42723 8689 ft 288 kts 19°
2026-05-04 14:29 60.48640 10.45192 8706 ft 280 kts
2026-05-04 14:30 60.50572 10.45771 8710 ft 283 kts
2026-05-04 14:30 60.52528 10.46368 8700 ft 286 kts
2026-05-04 14:30 60.56472 10.47697 8697 ft 289 kts
2026-05-04 14:31 60.58369 10.49006 8685 ft 297 kts 24°
2026-05-04 14:31 60.61929 10.53281 8687 ft 296 kts 26°
2026-05-04 14:32 60.65485 10.57468 8688 ft 294 kts 25°
2026-05-04 14:32 60.67200 10.59763 8674 ft 299 kts 40°
2026-05-04 14:32 60.68572 10.62966 8703 ft 301 kts 48°
2026-05-04 14:32 60.69903 10.66265 8687 ft 301 kts 47°
2026-05-04 14:33 60.71251 10.69545 8683 ft 301 kts 46°
2026-05-04 14:33 60.72606 10.72809 8676 ft 301 kts 46°
2026-05-04 14:33 60.73931 10.76105 8677 ft 301 kts 54°
2026-05-04 14:33 60.74857 10.79939 8700 ft 302 kts 66°
2026-05-04 14:34 60.75467 10.84048 8670 ft 304 kts 85°
2026-05-04 14:34 60.75222 10.88236 8684 ft 292 kts 112°
2026-05-04 14:34 60.74220 10.91677 8506 ft 278 kts 137°
2026-05-04 14:34 60.72731 10.94047 8262 ft 267 kts 158°
2026-05-04 14:35 60.71023 10.95307 8025 ft 257 kts 169°
2026-05-04 14:35 60.69308 10.96254 7795 ft 253 kts 171°
2026-05-04 14:35 60.67613 10.97149 7571 ft 250 kts 171°
2026-05-04 14:35 60.65938 10.98034 7350 ft 248 kts 171°
2026-05-04 14:36 60.64294 10.98910 7319 ft 240 kts 171°
2026-05-04 14:36 60.62672 10.99778 7191 ft 243 kts 171°
2026-05-04 14:36 60.61021 11.00660 6998 ft 248 kts 171°
2026-05-04 14:36 60.59350 11.01562 6798 ft 248 kts 170°
2026-05-04 14:37 60.57677 11.02462 6567 ft 248 kts 170°
2026-05-04 14:37 60.56017 11.03364 6368 ft 246 kts 170°
2026-05-04 14:37 60.54844 11.03998 6202 ft 245 kts 171°
2026-05-04 14:37 60.53181 11.04897 6000 ft 245 kts 171°
2026-05-04 14:38 60.51537 11.05788 5757 ft 242 kts 171°
2026-05-04 14:38 60.49917 11.06660 5550 ft 240 kts 171°
2026-05-04 14:38 60.48333 11.07524 5356 ft 239 kts 171°
2026-05-04 14:38 60.46741 11.08504 5133 ft 243 kts 159°
2026-05-04 14:39 60.45413 11.10656 4933 ft 246 kts 139°
2026-05-04 14:39 60.44208 11.13101 4759 ft 242 kts 140°
2026-05-04 14:39 60.43023 11.15451 4520 ft 236 kts 140°
2026-05-04 14:40 60.40670 11.19669 4064 ft 213 kts 164°
2026-05-04 14:40 60.39326 11.19761 3946 ft 185 kts 207°
2026-05-04 14:40 60.38151 11.18739 3770 ft 186 kts 205°
2026-05-04 14:40 60.36938 11.18009 3630 ft 176 kts 201°
2026-05-04 14:41 60.35793 11.17361 3512 ft 166 kts 202°
2026-05-04 14:41 60.34694 11.16721 3319 ft 162 kts 203°
2026-05-04 14:41 60.32540 11.15473 2895 ft 161 kts 202°
2026-05-04 14:42 60.30387 11.14263 2448 ft 159 kts 204°
2026-05-04 14:42 60.29352 11.13648 2258 ft 155 kts 199°
2026-05-04 14:42 60.28298 11.13130 2068 ft 157 kts 209°
2026-05-04 14:43 60.27312 11.12405 1944 ft 145 kts 200°
2026-05-04 14:43 60.26350 11.11915 1650 ft 139 kts 202°
2026-05-04 14:43 60.25431 11.11392 1437 ft 136 kts 204°
2026-05-04 14:43 60.24519 11.10867 1258 ft 135 kts 202°
2026-05-04 14:44 60.23594 11.10334 1117 ft 139 kts 200°
2026-05-04 14:44 60.22659 11.09798 958 ft 143 kts 202°
2026-05-04 14:44 60.21713 11.09241 736 ft 140 kts 201°
2026-05-04 14:44 60.20835 11.08725 676 ft 121 kts 198°
2026-05-04 14:45 60.20170 11.08335 683 ft 78 kts 196°
2026-05-04 14:45 60.19761 11.08118 685 ft 52 kts 187°
2026-05-04 14:45 60.19581 11.08231 688 ft 0 kts 112°
2026-05-04 14:46 60.19578 11.08247 684 ft 3 kts 112°
2026-05-04 14:46 60.19566 11.08312 690 ft 7 kts 108°
2026-05-04 14:47 60.19554 11.08418 688 ft 10 kts 105°
2026-05-04 14:47 60.19583 11.08556 688 ft 13 kts 25°
2026-05-04 14:47 60.19677 11.08611 690 ft 15 kts 15°
2026-05-04 14:47 60.19772 11.08668 687 ft 14 kts 18°
2026-05-04 14:48 60.19869 11.08725 686 ft 17 kts 16°
2026-05-04 14:48 60.19991 11.08796 685 ft 19 kts 16°
2026-05-04 14:48 60.20114 11.08878 690 ft 18 kts 41°
2026-05-04 14:48 60.20099 11.09113 685 ft 18 kts 105°
2026-05-04 14:49 60.20066 11.09345 687 ft 17 kts 107°
2026-05-04 14:49 60.20032 11.09574 688 ft 17 kts 105°
2026-05-04 14:49 60.20001 11.09803 686 ft 17 kts 105°
2026-05-04 14:49 60.19968 11.10033 686 ft 18 kts 107°
2026-05-04 14:50 60.19929 11.10292 689 ft 21 kts 107°
2026-05-04 14:50 60.19878 11.10550 687 ft 18 kts 140°
2026-05-04 14:50 60.19805 11.10530 688 ft 11 kts 202°
2026-05-04 14:50 60.19721 11.10479 690 ft 15 kts 196°
2026-05-04 14:51 60.19604 11.10411 689 ft 18 kts 196°
2026-05-04 14:51 60.19519 11.10491 685 ft 16 kts 99°
2026-05-04 14:51 60.19493 11.10683 690 ft 9 kts 127°
2026-05-04 14:51 60.19445 11.10678 687 ft 7 kts 197°
2026-05-04 14:52 60.19400 11.10652 690 ft 7 kts 196°
2026-05-04 14:52 60.19399 11.10651 690 ft 0 kts 196°
2026-05-04 14:52 60.19390 11.10646 685 ft 0 kts 196°
2026-05-04 15:05 60.19398 11.10651 686 ft 4 kts 195°